(178083) = 2006 SR168 = 2000 QB235

Discovered at Kitt Peak on 2006-09-25 by Spacewatch.

Orbit

Orbit type: Main Belt

Note: WebGL enabled browser required.

epoch2024-03-31.0
epoch JD2460400.5
perihelion date2018-11-28.90534
perihelion JD2458451.40534
argument of perihelion (°)117.08619
ascending node (°)343.52748
inclination (°)9.46312
eccentricity0.1934437
perihelion distance (AU)2.5273228
Tisserand w.r.t. Jupiter3.2
ΔV w.r.t. Earth (km/sec)10.4
semimajor axis (AU)3.1334734
mean anomaly (°)346.33609
mean daily motion (°/day)0.17769080
aphelion distance (AU)3.740
period (years)5.55
P-vector [x]-0.18762131
P-vector [y]0.83289865
P-vector [z]0.52065159
Q-vector [x]-0.98113445
Q-vector [y]-0.13375705
Q-vector [z]-0.13958598
absolute magnitude16.13
phase slope0.15
uncertainty0
referenceMPEC 2024-D119
observations used321
oppositions14
arc length (days)8607
first opposition used2000
last opposition used2024
residual rms (arc-secs)0.68
perturbers coarse indicatorM-v
perturbers precise indicator003Ek
first observation date used2000-07-30.0
last observation date used2024-02-22.0
computer nameMPCLINUX
JD of orbit computation2456819.573025
perihelion JD uncertainty (days)1.5003E-04
argument of perihelion uncertainty (°)5.0557E-05
ascending node uncertainty (°)3.8126E-05
inclination uncertainty (°)8.6611E-06
eccentricity uncertainty 5.2055E-08
perihelion distance uncertainty (AU)1.5846E-07
Minimum Orbit Intersection Distances (in AU)
for orbit epoch: 2460400.5, reference: E2024-DB9
Mercury2.21386
Venus1.81548
Earth1.5615
Mars0.93118
Jupiter1.49021
Saturn6.32123
Uranus15.4413
Neptune26.5508

Observations

327 total observations over interval: 2000 07 30.31021 – 2024 02 22.262715
These data are available for download (format description).

Date (UT) J2000 RA J2000 Dec Magn Location Ref
2000 07 30.31021 22 33 22.96 -13 04 04.2 20.8 R 807 – Cerro Tololo Observatory, La Serena MPS 75767
2000 07 30.41886 22 33 19.01 -13 04 17.9   807 – Cerro Tololo Observatory, La Serena MPS 75767
2000 08 26.17752 22 13 35.53 -14 10 30.3 20.1 R 807 – Cerro Tololo Observatory, La Serena MPS 19501
2000 08 26.23134 22 13 32.85 -14 10 38.0   807 – Cerro Tololo Observatory, La Serena MPS 19501
2000 08 27.12379 22 12 49.33 -14 12 45.6 20.2 R 807 – Cerro Tololo Observatory, La Serena MPS 19501
2000 08 27.19393 22 12 45.78 -14 12 55.8   807 – Cerro Tololo Observatory, La Serena MPS 19501
2001 11 11.28554 03 11 03.66 +32 18 24.5 19.4   704 – Lincoln Laboratory ETS, New Mexico MPS 252407
2001 11 11.29994 03 11 02.84 +32 18 24.1 19.8   704 – Lincoln Laboratory ETS, New Mexico MPS 252407
2001 11 11.31432 03 11 01.90 +32 18 22.5 19.7   704 – Lincoln Laboratory ETS, New Mexico MPS 252407
2001 11 11.32873 03 11 01.02 +32 18 21.5 19.9   704 – Lincoln Laboratory ETS, New Mexico MPS 252407
2001 11 11.34313 03 11 00.19 +32 18 20.1 19.3   704 – Lincoln Laboratory ETS, New Mexico MPS 252407
2003 03 23.29745 11 40 17.62 -01 52 34.0 20.0 V 691 – Steward Observatory, Kitt Peak-Spacewatch MPS 218726
2003 03 23.32370 11 40 16.26 -01 52 30.3 19.9 V 691 – Steward Observatory, Kitt Peak-Spacewatch MPS 218726
2003 03 23.35197 11 40 14.76 -01 52 26.3 19.9 V 691 – Steward Observatory, Kitt Peak-Spacewatch MPS 218726
2006 09 25.16274 00 05 32.11 +05 39 50.7 20.7 V 691 – Steward Observatory, Kitt Peak-Spacewatch MPS 181398
2006 09 25.18009 00 05 31.25 +05 39 47.8 20.7 V 691 – Steward Observatory, Kitt Peak-Spacewatch MPS 181398
2006 09 25.19743 00 05 30.34 +05 39 45.3 20.4 V 691 – Steward Observatory, Kitt Peak-Spacewatch MPS 181398
2006 09 27.16858 00 03 51.36 +05 34 25.0 20.5 V 691 – Steward Observatory, Kitt Peak-Spacewatch MPS 181398
2006 09 27.18589 00 03 50.47 +05 34 22.6 20.8 V 691 – Steward Observatory, Kitt Peak-Spacewatch MPS 181398
2006 09 27.20326 00 03 49.57 +05 34 19.5 20.7 V 691 – Steward Observatory, Kitt Peak-Spacewatch MPS 181398
2006 10 01.17155 00 00 30.98 +05 23 08.7   691 – Steward Observatory, Kitt Peak-Spacewatch MPS 182895
2006 10 01.18885 00 00 30.06 +05 23 05.7   691 – Steward Observatory, Kitt Peak-Spacewatch MPS 182895
2006 10 01.20616 00 00 29.19 +05 23 02.9   691 – Steward Observatory, Kitt Peak-Spacewatch MPS 182895
2006 10 23.15681 23 44 33.82 +04 22 21.7 20.8 V G96 – Mt. Lemmon Survey MPS 184172
2006 10 23.16173 23 44 33.61 +04 22 20.3 20.4 V G96 – Mt. Lemmon Survey MPS 184172
2006 10 23.16674 23 44 33.46 +04 22 19.9 20.5 V G96 – Mt. Lemmon Survey MPS 184172
2006 10 23.17168 23 44 33.28 +04 22 19.4 20.4 V G96 – Mt. Lemmon Survey MPS 184172
2007 12 18.33781 08 30 09.19 +31 13 56.0 20.1   704 – Lincoln Laboratory ETS, New Mexico MPS 231819
2007 12 18.35067 08 30 08.88 +31 13 58.0 20.1   704 – Lincoln Laboratory ETS, New Mexico MPS 231819
2007 12 18.36353 08 30 08.49 +31 13 59.9 20.4   704 – Lincoln Laboratory ETS, New Mexico MPS 231819
2007 12 18.37638 08 30 08.15 +31 13 59.8 20.0   704 – Lincoln Laboratory ETS, New Mexico MPS 231819
2008 01 03.62758 08 19 33.78 +31 46 49.6 20.1 R D29 – Purple Mountain Observatory, XuYi Station MPS 232639
2008 01 03.64419 08 19 32.84 +31 46 52.4 19.8 R D29 – Purple Mountain Observatory, XuYi Station MPS 232639
2008 01 03.65953 08 19 32.07 +31 46 52.8 19.9 R D29 – Purple Mountain Observatory, XuYi Station MPS 232639
2008 01 03.67598 08 19 31.18 +31 46 54.3 19.0 R D29 – Purple Mountain Observatory, XuYi Station MPS 232639
2008 01 11.27597 08 12 26.61 +31 55 35.0 19.8   704 – Lincoln Laboratory ETS, New Mexico MPS 234300
2008 01 11.28891 08 12 25.70 +31 55 35.7 19.9   704 – Lincoln Laboratory ETS, New Mexico MPS 234300
2008 01 11.29190 08 12 25.56 +31 55 34.9 19.5 V 703 – Catalina Sky Survey MPS 233429
2008 01 11.30067 08 12 25.09 +31 55 35.6 19.1 V 703 – Catalina Sky Survey MPS 233429
2008 01 11.30185 08 12 24.98 +31 55 34.9 20.0   704 – Lincoln Laboratory ETS, New Mexico MPS 234300
2008 01 11.30954 08 12 24.48 +31 55 36.6 19.5 V 703 – Catalina Sky Survey MPS 233429
2008 01 11.31478 08 12 24.15 +31 55 37.8 19.7   704 – Lincoln Laboratory ETS, New Mexico MPS 234300
2008 01 11.31838 08 12 23.94 +31 55 36.3 19.1 V 703 – Catalina Sky Survey MPS 233429
2008 01 11.32802 08 12 23.37 +31 55 37.0 19.7   704 – Lincoln Laboratory ETS, New Mexico MPS 234300
2008 01 18.27462 08 05 21.19 +31 56 51.5 19.4 V G96 – Mt. Lemmon Survey MPS 234300
2008 01 18.27948 08 05 20.86 +31 56 51.6 19.3 V G96 – Mt. Lemmon Survey MPS 234300
2008 01 18.28424 08 05 20.54 +31 56 51.7 19.3 V G96 – Mt. Lemmon Survey MPS 234300
2008 01 18.28902 08 05 20.25 +31 56 51.6 19.3 V G96 – Mt. Lemmon Survey MPS 234300
2008 01 30.34667 07 53 19.68 +31 41 04.8 19.3 V 703 – Catalina Sky Survey MPS 235487
2008 01 30.35419 07 53 19.24 +31 41 04.5 20.0 V 703 – Catalina Sky Survey MPS 235487
2008 01 30.36173 07 53 18.74 +31 41 03.6 19.6 V 703 – Catalina Sky Survey MPS 235487
2008 01 30.36933 07 53 18.31 +31 41 01.8 19.4 V 703 – Catalina Sky Survey MPS 235487
2008 02 06.22472 07 47 22.59 +31 21 56.0 19.6   704 – Lincoln Laboratory ETS, New Mexico MPS 236311
2008 02 06.23693 07 47 22.07 +31 21 54.1 20.1   704 – Lincoln Laboratory ETS, New Mexico MPS 236311
2008 02 06.24923 07 47 21.41 +31 21 51.8 19.9   704 – Lincoln Laboratory ETS, New Mexico MPS 236311
2008 02 06.27367 07 47 20.18 +31 21 46.1 20.2   704 – Lincoln Laboratory ETS, New Mexico MPS 236311
2008 02 12.26173 07 43 03.75 +30 59 43.2 20.2 V 703 – Catalina Sky Survey MPS 237597
2008 02 12.26832 07 43 03.46 +30 59 40.9 19.8 V 703 – Catalina Sky Survey MPS 237597
2008 02 12.27490 07 43 03.25 +30 59 40.5 21.2 V 703 – Catalina Sky Survey MPS 237597
2008 02 12.28149 07 43 02.92 +30 59 36.7 19.7 V 703 – Catalina Sky Survey MPS 237597
2008 02 13.15670 07 42 30.79 +30 56 02.4 19.6   704 – Lincoln Laboratory ETS, New Mexico MPS 237597
2008 02 13.18035 07 42 29.84 +30 55 56.5 20.4   704 – Lincoln Laboratory ETS, New Mexico MPS 237597
2008 02 13.19218 07 42 29.33 +30 55 53.2 20.3   704 – Lincoln Laboratory ETS, New Mexico MPS 237597
2008 02 13.20403 07 42 28.96 +30 55 51.0 20.8   704 – Lincoln Laboratory ETS, New Mexico MPS 237597
2011 09 26.22763 21 41 24.32 -16 19 04.0 21.0 V G96 – Mt. Lemmon Survey MPS 393949
2011 09 26.23275 21 41 24.18 -16 19 03.0 21.4 V G96 – Mt. Lemmon Survey MPS 393949
2011 09 26.23796 21 41 24.00 -16 19 04.0 21.7 V G96 – Mt. Lemmon Survey MPS 393949
2011 09 26.24316 21 41 23.89 -16 19 03.3 21.2 V G96 – Mt. Lemmon Survey MPS 393949
2012 10 26.522326 03 04 29.057 +30 48 23.36 19.8 r F51 – Pan-STARRS 1, Haleakala MPS 441117
2012 10 26.545858 03 04 27.817 +30 48 24.14 19.7 i F51 – Pan-STARRS 1, Haleakala MPS 441117
2012 10 26.557774 03 04 27.169 +30 48 24.49 19.6 i F51 – Pan-STARRS 1, Haleakala MPS 441117
2012 10 27.413451 03 03 43.215 +30 48 52.22 19.7 i F51 – Pan-STARRS 1, Haleakala MPS 441117
2012 10 27.427154 03 03 42.473 +30 48 52.61 19.6 i F51 – Pan-STARRS 1, Haleakala MPS 441117
2012 11 03.561921 02 57 10.268 +30 47 26.08 19.5 i F51 – Pan-STARRS 1, Haleakala MPS 441117
2012 11 03.573827 02 57 09.570 +30 47 25.38 19.5 i F51 – Pan-STARRS 1, Haleakala MPS 441117
2012 11 20.23494 02 41 13.45 +30 10 05.6 19.6 V 703 – Catalina Sky Survey MPS 444583
2012 11 20.24121 02 41 13.02 +30 10 04.3 20.1 V 703 – Catalina Sky Survey MPS 444583
2012 11 20.24756 02 41 12.69 +30 10 03.4 19.6 V 703 – Catalina Sky Survey MPS 444583
2012 11 20.25391 02 41 12.48 +30 10 02.2 19.8 V 703 – Catalina Sky Survey MPS 444583
2013 01 17.09550 02 31 54.33 +27 02 23.0 20.7 V G96 – Mt. Lemmon Survey MPS 451943
2013 01 17.10142 02 31 54.55 +27 02 22.0 20.5 V G96 – Mt. Lemmon Survey MPS 451943
2013 01 17.10732 02 31 54.80 +27 02 21.9 20.5 V G96 – Mt. Lemmon Survey MPS 451943
2013 01 17.11322 02 31 55.05 +27 02 21.4 20.8 V G96 – Mt. Lemmon Survey MPS 451943
2014 02 28.45453 11 43 38.733 -00 06 18.14 19.9 w F51 – Pan-STARRS 1, Haleakala MPS 504999
2014 02 28.46660 11 43 38.119 -00 06 17.02 20.0 w F51 – Pan-STARRS 1, Haleakala MPS 504999
2014 02 28.47868 11 43 37.508 -00 06 15.96 19.9 w F51 – Pan-STARRS 1, Haleakala MPS 504999
2014 02 28.49076 11 43 36.900 -00 06 14.87 20.0 w F51 – Pan-STARRS 1, Haleakala MPS 504999
